Home > Weather > Kleppe > Past weeks

Flag for Norway Weather for the Past 2 Weeks in Kleppe, Norway

Now
22 °F

Clear.


Feels Like: 22 °F
Forecast: 27 / 30 °F
Wind: 1 mph from East

Location: Stavanger / Sola

Current Time: Feb 13, 2016 at 8:58:26 AM

Latest Report: Feb 13, 2016 at 8:00 AM


Visibility: 28 mi

Pressure: 29.47 "Hg

Humidity: 69%

Dew point: 13 °F

Location of KleppeLocation

Historic Weather in Kleppe — Graph

°F

Kleppe Temperature Yesterday

Maximum temperature yesterday: 37 °F (at 3:00 PM)
Minimum temperature yesterday: 24 °F (at 8:00 AM)
Average temperature yesterday: 30 °F

High & Low Weather Summary for the Past Weeks

 TemperatureHumidityPressure
High49 °F (Jan 29, 1:00 PM)96% (Jan 29, 9:00 AM)30.03 "Hg (Jan 29, 9:00 AM)
Low21 °F (Feb 13, 6:00 AM)40% (Feb 12, 1:00 PM)28.58 "Hg (Feb 8, 8:00 AM)
Average40 °F80%29.30 "Hg
* Reported Jan 29 7:00 AM — Feb 13 7:00 AM, Kleppe, Weather by CustomWeather, © 2016

Note: Actual official high and low records may vary slightly from our data, if they occured in-between our weather recording intervals... More about our weather records

Advertising

Kleppe Weather History for the Previous 24 Hours

 ConditionsComfort  
Time TempWeatherWind HumidityBarometerVisibility
7:00 AM
Sat, Feb 13
22 °FClear.5 mph68%29.47 "Hg31 mi
6:00 AM21 °FClear.1 mph70%29.47 "Hg31 mi
5:00 AM23 °FClear.5 mph69%29.47 "Hg31 mi
1:00 AM23 °FClear.2 mph73%29.55 "Hg31 mi
11:00 PM
Fri, Feb 12
24 °FClear.1 mph76%29.56 "Hg16 mi
10:00 PM25 °FClear.1 mph71%29.57 "Hg25 mi
9:00 PM26 °FClear.1 mph63%29.58 "Hg18 mi
8:00 PM30 °FClear.2 mph58%29.59 "Hg31 mi
7:00 PM30 °FClear.1 mph60%29.60 "Hg31 mi
6:00 PM31 °FClear.2 mph63%29.61 "Hg28 mi
5:00 PM33 °FSunny.2 mph49%29.62 "Hg31 mi
4:00 PM34 °FSunny.3 mph48%29.62 "Hg25 mi
3:00 PM37 °FSunny.1 mph40%29.64 "Hg25 mi
2:00 PM35 °FSunny.3 mph43%29.66 "Hg25 mi
1:00 PM35 °FSunny.5 mph40%29.67 "Hg25 mi
12:00 PM34 °FSunny.3 mph43%29.68 "Hg25 mi
11:00 AM33 °FSunny.5 mph46%29.69 "Hg19 mi
10:00 AM32 °FSunny.1 mph58%29.70 "Hg22 mi
9:00 AM28 °FSunny.1 mph64%29.69 "Hg25 mi
8:00 AM24 °FClear.No wind67%29.69 "Hg15 mi
Weather by CustomWeather, © 2016

See weather overviewHow to use our weather pages